When you browse on this site, cookies collect data to enhance your experience and personalize the content and advertising you see.
Visit our Privacy Policy to learn more. By continuing to use the site, you agree to this use of cookies and data.
  • In Latvia
  • List of Countries
  • For 7 days
  • Water Temperature
  • Weather Map
  • Weather Widgets
  • user-avatar
    Login

    Hourly Weather Solden

    Today, 1 June, Monday

    Time Temperature Precipitation Wind Pressure Humidity
    00:00 0°C° 0 mm 1 mps 582 mmHg 82%
    01:00 0°C° 0 mm 1 mps 582 mmHg 82%
    02:00 0°C° 0 mm 1 mps 582 mmHg 82%
    03:00 -1°C° 0 mm 1 mps 581 mmHg 81%
    04:00 -1°C° 0 mm 1 mps 581 mmHg 81%
    05:00 +1°C° 0 mm 1 mps 582 mmHg 74%
    06:00 +3°C° 0 mm 0 mps 583 mmHg 68%
    07:00 +5°C° 0 mm 0 mps 585 mmHg 61%
    08:00 +7°C° 0 mm 0 mps 585 mmHg 56%
    09:00 +10°C° 0 mm 1 mps 586 mmHg 51%
    10:00 +12°C° 0 mm 1 mps 587 mmHg 46%
    11:00 +12°C° 0 mm 1 mps 587 mmHg 45%
    12:00 +13°C° 0 mm 1 mps 587 mmHg 44%
    13:00 +14°C° 0 mm 1 mps 588 mmHg 43%
    14:00 +14°C° 0.2 mm 2 mps 587 mmHg 46%
    15:00 +13°C° 0.2 mm 2 mps 587 mmHg 49%
    16:00 +13°C° 0.2 mm 2 mps 587 mmHg 52%
    17:00 +12°C° 0.6 mm 2 mps 586 mmHg 63%
    18:00 +10°C° 0.6 mm 1 mps 585 mmHg 73%
    19:00 +8°C° 0.6 mm 1 mps 585 mmHg 83%
    20:00 +7°C° 0.2 mm 1 mps 584 mmHg 86%
    21:00 +5°C° 0.2 mm 1 mps 584 mmHg 88%
    22:00 +3°C° 0.2 mm 1 mps 583 mmHg 91%
    23:00 +3°C° 0 mm 1 mps 583 mmHg 91%

    Tomorrow, 2 June, Tuesday

    Time Temperature Precipitation Wind Pressure Humidity
    00:00 +3°C° 0 mm 1 mps 582 mmHg 91%
    01:00 +2°C° 0 mm 1 mps 582 mmHg 91%
    02:00 +2°C° 0 mm 1 mps 582 mmHg 90%
    03:00 +2°C° 0 mm 1 mps 581 mmHg 89%
    04:00 +1°C° 0 mm 1 mps 581 mmHg 87%
    05:00 +3°C° 0 mm 1 mps 582 mmHg 83%
    06:00 +5°C° 0 mm 1 mps 583 mmHg 79%
    07:00 +7°C° 0 mm 1 mps 584 mmHg 74%
    08:00 +9°C° 0 mm 1 mps 585 mmHg 65%
    09:00 +11°C° 0 mm 1 mps 585 mmHg 55%
    10:00 +13°C° 0 mm 1 mps 586 mmHg 45%
    11:00 +13°C° 0.1 mm 1 mps 586 mmHg 44%
    12:00 +14°C° 0.1 mm 2 mps 586 mmHg 42%
    13:00 +15°C° 0.1 mm 2 mps 586 mmHg 40%
    14:00 +14°C° 0.3 mm 2 mps 586 mmHg 43%
    15:00 +14°C° 0.3 mm 2 mps 585 mmHg 45%
    16:00 +14°C° 0.3 mm 2 mps 585 mmHg 48%
    17:00 +12°C° 0.6 mm 2 mps 584 mmHg 58%
    18:00 +9°C° 0.6 mm 2 mps 583 mmHg 68%
    19:00 +9°C° 0.6 mm 1 mps 582 mmHg 78%
    20:00 +7°C° 0.2 mm 1 mps 581 mmHg 80%
    21:00 +5°C° 0.2 mm 1 mps 581 mmHg 82%
    22:00 +3°C° 0.2 mm 2 mps 580 mmHg 84%
    23:00 +3°C° 0 mm 1 mps 580 mmHg 85%

    Day after tomorrow, 3 June, Wednesday

    Time Temperature Precipitation Wind Pressure Humidity
    00:00 +3°C° 0 mm 1 mps 579 mmHg 85%
    01:00 +2°C° 0 mm 1 mps 579 mmHg 85%
    02:00 +2°C° 0 mm 1 mps 578 mmHg 84%
    03:00 +2°C° 0 mm 1 mps 578 mmHg 83%
    04:00 +1°C° 0 mm 1 mps 578 mmHg 82%
    05:00 +3°C° 0 mm 1 mps 579 mmHg 77%
    06:00 +4°C° 0 mm 0 mps 579 mmHg 72%
    07:00 +6°C° 0 mm 0 mps 580 mmHg 66%
    08:00 +9°C° 0 mm 1 mps 581 mmHg 60%
    09:00 +10°C° 0 mm 1 mps 581 mmHg 54%
    10:00 +12°C° 0 mm 1 mps 582 mmHg 48%
    11:00 +12°C° 0.2 mm 2 mps 582 mmHg 49%
    12:00 +13°C° 0.2 mm 2 mps 582 mmHg 51%
    13:00 +13°C° 0.2 mm 2 mps 582 mmHg 52%
    14:00 +12°C° 0.8 mm 2 mps 581 mmHg 59%
    15:00 +10°C° 0.8 mm 2 mps 580 mmHg 66%
    16:00 +10°C° 0.8 mm 2 mps 580 mmHg 73%
    17:00 +9°C° 0.8 mm 2 mps 579 mmHg 78%
    18:00 +9°C° 0.8 mm 1 mps 578 mmHg 84%
    19:00 +8°C° 0.8 mm 1 mps 578 mmHg 90%
    20:00 +7°C° 0.6 mm 1 mps 578 mmHg 91%
    21:00 +6°C° 0.6 mm 1 mps 578 mmHg 93%
    22:00 +4°C° 0.6 mm 0 mps 577 mmHg 94%
    23:00 +4°C° 0.2 mm 0 mps 577 mmHg 95%

    4 June, Thursday

    Time Temperature Precipitation Wind Pressure Humidity
    00:00 +3°C° 0.2 mm 0 mps 577 mmHg 96%
    01:00 +3°C° 0.2 mm 0 mps 576 mmHg 97%
    02:00 +4°C° 0.1 mm 1 mps 576 mmHg 97%
    03:00 +4°C° 0.1 mm 1 mps 576 mmHg 97%
    04:00 +4°C° 0.1 mm 1 mps 576 mmHg 97%
    05:00 +5°C° 0.1 mm 1 mps 576 mmHg 96%
    06:00 +5°C° 0.1 mm 1 mps 576 mmHg 94%
    07:00 +6°C° 0.1 mm 1 mps 576 mmHg 93%
    08:00 +6°C° 0.7 mm 1 mps 576 mmHg 93%
    09:00 +6°C° 0.7 mm 1 mps 576 mmHg 93%
    10:00 +5°C° 0.7 mm 2 mps 576 mmHg 94%
    11:00 +6°C° 0.5 mm 2 mps 576 mmHg 94%
    12:00 +6°C° 0.5 mm 2 mps 576 mmHg 94%
    13:00 +6°C° 0.5 mm 2 mps 576 mmHg 95%
    14:00 +6°C° 0.6 mm 2 mps 576 mmHg 95%
    15:00 +5°C° 0.6 mm 2 mps 575 mmHg 96%
    16:00 +5°C° 0.6 mm 2 mps 575 mmHg 97%
    17:00 +6°C° 0.7 mm 1 mps 575 mmHg 97%
    18:00 +6°C° 0.7 mm 1 mps 575 mmHg 98%
    19:00 +6°C° 0.7 mm 1 mps 575 mmHg 98%
    20:00 +6°C° 1.3 mm 1 mps 575 mmHg 98%
    21:00 +5°C° 1.3 mm 1 mps 575 mmHg 98%
    22:00 +5°C° 1.3 mm 1 mps 575 mmHg 98%
    23:00 +5°C° 0.8 mm 1 mps 575 mmHg 98%

    5 June, Friday

    Time Temperature Precipitation Wind Pressure Humidity
    00:00 +5°C° 0.8 mm 1 mps 574 mmHg 98%
    01:00 +5°C° 0.8 mm 1 mps 574 mmHg 98%
    02:00 +5°C° 1.1 mm 1 mps 574 mmHg 99%
    03:00 +5°C° 1.1 mm 1 mps 574 mmHg 99%
    04:00 +5°C° 1.1 mm 1 mps 574 mmHg 99%
    05:00 +5°C° 1.7 mm 1 mps 574 mmHg 98%
    06:00 +5°C° 1.7 mm 1 mps 574 mmHg 98%
    07:00 +5°C° 1.7 mm 1 mps 574 mmHg 98%
    08:00 +5°C° 1 mm 1 mps 574 mmHg 96%
    09:00 +6°C° 1 mm 1 mps 574 mmHg 94%
    10:00 +6°C° 1 mm 1 mps 575 mmHg 92%
    11:00 +6°C° 0.8 mm 1 mps 575 mmHg 93%
    12:00 +6°C° 0.8 mm 1 mps 575 mmHg 93%
    13:00 +6°C° 0.8 mm 1 mps 575 mmHg 93%
    14:00 +6°C° 1.5 mm 1 mps 575 mmHg 94%
    15:00 +5°C° 1.5 mm 1 mps 574 mmHg 94%
    16:00 +5°C° 1.5 mm 1 mps 574 mmHg 94%
    17:00 +5°C° 0.1 mm 1 mps 574 mmHg 93%
    18:00 +5°C° 0.1 mm 1 mps 575 mmHg 92%
    19:00 +5°C° 0.1 mm 0 mps 575 mmHg 91%
    20:00 +3°C° 0 mm 0 mps 575 mmHg 92%
    21:00 +3°C° 0 mm 1 mps 574 mmHg 92%
    22:00 +2°C° 0 mm 1 mps 574 mmHg 93%
    23:00 +2°C° 0 mm 1 mps 574 mmHg 93%

    6 June, Saturday

    Time Temperature Precipitation Wind Pressure Humidity
    00:00 +2°C° 0 mm 1 mps 574 mmHg 93%
    01:00 +2°C° 0 mm 1 mps 574 mmHg 94%
    02:00 +2°C° 0 mm 1 mps 574 mmHg 94%
    03:00 +2°C° 0 mm 1 mps 574 mmHg 93%
    04:00 +1°C° 0 mm 0 mps 575 mmHg 93%
    05:00 +2°C° 0 mm 0 mps 575 mmHg 93%
    06:00 +4°C° 0 mm 1 mps 575 mmHg 92%
    07:00 +5°C° 0 mm 1 mps 576 mmHg 91%
    08:00 +5°C° 0.1 mm 1 mps 576 mmHg 89%
    09:00 +6°C° 0.1 mm 1 mps 577 mmHg 88%
    10:00 +7°C° 0.1 mm 1 mps 577 mmHg 87%
    11:00 +7°C° 0.5 mm 1 mps 577 mmHg 88%
    12:00 +7°C° 0.5 mm 1 mps 577 mmHg 90%
    13:00 +7°C° 0.5 mm 1 mps 577 mmHg 92%
    14:00 +7°C° 0.3 mm 1 mps 577 mmHg 88%
    15:00 +8°C° 0.3 mm 1 mps 578 mmHg 85%
    16:00 +8°C° 0.3 mm 0 mps 578 mmHg 82%
    17:00 +8°C° 0.2 mm 0 mps 578 mmHg 84%
    18:00 +7°C° 0.2 mm 0 mps 578 mmHg 87%
    19:00 +7°C° 0.2 mm 0 mps 578 mmHg 90%
    20:00 +6°C° 0.1 mm 0 mps 578 mmHg 92%
    21:00 +5°C° 0.1 mm 0 mps 578 mmHg 94%
    22:00 +4°C° 0.1 mm 0 mps 578 mmHg 96%
    23:00 +4°C° 0.2 mm 0 mps 578 mmHg 96%
    Show more